Lid_Strength_Index
1 4 6 9 12 15 17 14 11 12 11 10 5 6 7 7 8 11 2 1 1 1 -0 -0 -1 -1 -1 -1 -1 -1 -1 -1 -1 -1 -1 -1 -1 -1 -1 -1 -1 -1 -1 -1 -1 -1 -1 -1 -1
1 1 7 11 15 18 17 13 11 10 9 8 7 7 7 8 4 4 3 1 0 0 -0 -0 -1 -1 -1 -1 -1 -1 -1 -1 -1 -1 -1 -1 -1 -1 -1 -1 -1 -1 -1 -1 -1 -1 -1 -1 -1
1 2 7 13 16 18 16 12 11 9 9 10 9 6 6 7 4 4 2 1 0 0 -0 -0 -1 -1 -1 -1 -1 -1 -1 -1 -1 -1 -1 -1 -1 -1 -1 -1 -1 -1 -1 -1 -1 -1 -1 -1 -1
5 6 7 13 16 15 13 12 11 11 9 10 9 9 5 3 3 2 1 1 1 1 0 -0 -0 -0 -1 -1 -1 -1 -1 -1 -1 -1 -1 -1 -1 -1 -1 -1 -1 -1 -1 -1 -1 -1 -1 -1 -1
6 9 12 16 15 14 11 10 11 12 10 11 10 9 6 3 2 1 1 1 1 1 -0 -0 -0 -1 -1 -1 -1 -1 -1 -1 -1 -1 -1 -1 -1 -1 -1 -1 -1 -1 -1 -1 -1 -1 -1 -1 -1
9 11 16 15 13 11 11 10 10 11 10 10 11 9 6 3 3 2 1 1 1 1 0 -0 -0 -0 -1 -1 -1 -1 -1 -1 -1 -1 -1 -1 -1 -1 -1 -1 -1 -1 -1 -1 -1 -1 -1 -1 -1
11 13 16 15 14 12 10 9 11 9 11 11 10 11 6 4 2 1 1 1 1 0 0 0 -0 -0 -1 -1 -0 -1 -1 -1 -1 -1 -1 -1 -1 -1 -1 -1 -1 -1 -1 -1 -1 -2 -2 -2 -2
10 12 14 14 13 13 9 9 9 9 8 8 7 11 8 4 2 2 1 1 1 1 0 0 0 -0 -0 -0 -1 -1 -1 -1 -1 -1 -1 -1 -1 -1 -1 -1 -1 -1 -1 -1 -1 -1 -1 -1 -1
10 15 17 15 13 12 9 10 8 7 8 8 8 9 5 2 2 2 3 2 2 1 1 0 0 0 -0 -0 -0 -1 -1 -1 -1 -1 -1 -0 -0 -0 -0 -1 -1 -1 -1 -1 -1 -1 -1 -1 -2
13 17 15 12 11 12 10 11 10 10 10 9 10 10 9 8 3 4 4 4 3 3 2 1 0 0 0 -0 -0 -0 -0 -0 -0 -0 -0 0 0 0 -0 -1 -1 -1 -1 -1 -1 -1 -1 -1 0
14 15 11 11 10 10 10 10 9 10 11 10 11 10 10 8 8 4 4 3 3 2 2 1 1 0 0 0 0 -0 -0 -0 -0 -0 0 0 0 0 0 0 0 0 -1 0 -0 -0 0 0 0
13 11 11 11 10 11 11 10 10 10 10 8 8 9 10 8 8 8 4 3 3 3 2 1 1 1 0 0 0 0 0 -0 0 0 0 0 0 0 0 0 0 0 0 0 0 0 0 0 1
11 10 8 8 10 11 10 11 11 11 8 7 7 7 9 11 8 7 7 3 3 3 3 2 1 1 1 1 1 0 0 0 0 -0 0 0 1 0 1 0 0 0 0 0 1 1 0 1 1
8 7 7 8 8 9 9 9 11 9 8 8 8 8 9 10 10 10 6 3 3 3 3 3 2 1 1 1 1 1 1 0 0 0 0 0 0 1 0 1 1 1 1 0 1 1 2 1 1
6 9 8 7 8 8 8 10 10 8 7 9 9 9 8 8 8 8 9 8 3 3 3 4 3 1 1 1 1 1 0 0 1 0 0 0 1 2 1 2 2 2 2 2 1 1 1 2 3
9 10 13 10 8 7 9 12 8 7 8 8 9 9 9 8 7 8 7 4 3 2 3 2 1 2 2 1 0 1 0 0 0 0 1 0 0 1 1 2 2 0 0 0 2 2 3 4 4
12 15 13 11 9 9 10 10 7 7 8 8 9 10 9 9 8 7 6 3 2 2 2 2 1 1 1 1 1 1 0 0 0 1 1 0 0 0 1 1 0 0 1 2 3 3 4 5 5
14 14 13 13 9 8 9 11 9 7 7 8 9 10 10 10 8 7 6 3 2 2 2 2 3 1 1 1 1 1 1 0 0 1 1 0 0 0 0 1 1 1 2 2 3 4 4 4 5
10 12 13 11 8 9 10 10 9 8 8 8 8 8 10 10 8 7 7 3 2 2 3 2 2 1 1 1 2 2 2 1 1 1 1 1 0 0 1 1 2 2 3 3 3 3 4 4 3
10 12 13 10 8 9 10 11 9 8 8 8 7 7 9 10 9 8 7 4 3 3 2 2 3 4 1 1 1 1 1 1 1 1 1 1 0 0 1 2 3 2 3 3 3 3 3 3 2
11 12 12 12 9 9 10 11 10 8 7 7 7 6 7 9 10 9 8 7 3 3 3 3 3 2 1 1 1 1 1 1 2 2 1 0 0 0 1 2 2 3 3 3 4 3 3 4 3
13 9 10 11 13 16 11 18 11 9 9 7 7 7 7 8 9 9 8 8 4 3 2 2 2 2 2 1 2 2 3 3 2 2 2 2 1 1 2 3 3 3 4 3 3 3 3 4 6
11 9 10 10 12 14 13 16 13 10 10 9 8 6 6 6 9 10 9 8 7 3 2 2 2 2 4 4 1 2 2 2 2 2 3 3 2 3 2 2 2 3 3 3 4 4 5 5 5
7 10 11 12 13 18 14 15 14 12 10 8 7 7 6 6 6 9 8 7 7 3 3 2 2 2 4 4 3 2 2 2 2 3 3 3 3 3 3 3 3 3 3 3 4 4 5 5 5
10 14 19 20 20 20 12 15 13 9 8 8 8 7 7 6 6 9 9 8 7 4 3 3 3 3 3 3 2 2 2 2 2 3 3 4 3 3 4 4 3 3 4 4 5 4 4 4 5
13 14 19 23 22 19 13 18 14 9 7 6 6 7 6 6 7 7 9 8 7 4 3 3 3 3 2 2 2 2 3 2 2 2 3 2 2 4 4 3 3 3 3 4 4 4 4 5 6
13 16 12 17 16 19 17 13 10 8 8 8 7 7 7 6 5 6 7 7 6 3 3 3 3 3 3 2 2 2 1 1 1 2 2 2 4 4 3 3 4 4 4 4 4 5 5 6 6
11 9 17 16 22 23 18 16 16 12 11 9 8 8 7 8 6 7 6 6 3 3 3 3 3 3 2 2 2 2 3 1 2 2 3 4 4 4 4 4 5 4 4 5 5 5 6 6 6
13 14 13 14 16 21 21 18 11 11 9 10 9 7 7 7 6 5 4 5 3 3 3 3 3 3 2 2 2 2 1 2 3 4 4 5 4 5 4 5 4 4 5 5 5 6 6 6 7
11 12 13 18 19 17 18 18 8 9 8 8 8 7 6 6 5 4 4 5 4 4 3 3 3 3 2 2 2 2 2 3 5 6 5 5 5 5 4 3 4 5 5 5 5 6 6 6 7